Time,TemperatureF,DewpointF,PressureIn,WindDirection,WindDirectionDegrees,WindSpeedMPH,WindSpeedGustMPH,Humidity,HourlyPrecipIn,Conditions,Clouds,dailyrainin,SoftwareType,DateUTC
2013-02-14 00:00:00,36.0,29.5,0.00,NNW,329,2.2,4.0,77,0.00,,---,0.20,VWS V13.01,2013-02-14 05:00:00,
2013-02-14 00:01:00,36.0,29.5,0.00,NNW,329,0.0,2.2,77,0.00,,---,0.00,VWS V13.01,2013-02-14 05:01:00,
2013-02-14 00:06:00,35.8,29.6,0.00,NNW,329,0.0,2.2,78,0.00,,---,0.00,VWS V13.01,2013-02-14 05:06:00,
2013-02-14 00:11:00,36.0,29.8,0.00,NNW,329,0.0,2.2,78,0.00,,---,0.00,VWS V13.01,2013-02-14 05:11:00,
2013-02-14 00:16:00,36.0,30.1,0.00,NNW,329,0.0,2.2,79,0.00,,---,0.00,VWS V13.01,2013-02-14 05:16:00,
2013-02-14 00:21:00,35.8,29.9,0.00,NNW,329,0.0,0.0,79,0.00,,---,0.00,VWS V13.01,2013-02-14 05:21:00,
2013-02-14 00:26:00,35.6,29.7,0.00,NNW,329,0.0,0.0,79,0.00,,---,0.00,VWS V13.01,2013-02-14 05:26:00,
2013-02-14 00:31:00,35.4,29.6,0.00,NNW,329,0.0,0.0,79,0.00,,---,0.00,VWS V13.01,2013-02-14 05:31:00,
2013-02-14 00:36:00,35.2,29.4,0.00,NNW,329,0.0,0.0,79,0.00,,---,0.00,VWS V13.01,2013-02-14 05:36:00,
2013-02-14 00:41:00,35.1,29.5,0.00,NNW,329,0.0,0.0,80,0.00,,---,0.00,VWS V13.01,2013-02-14 05:41:00,
2013-02-14 00:46:00,35.1,29.5,0.00,NNW,329,0.0,0.0,80,0.00,,---,0.00,VWS V13.01,2013-02-14 05:46:00,
2013-02-14 00:51:00,34.9,29.4,0.00,NNW,329,0.0,0.0,80,0.00,,---,0.00,VWS V13.01,2013-02-14 05:51:00,
2013-02-14 00:56:00,35.1,29.8,0.00,SW,235,0.0,0.0,81,0.00,,---,0.00,VWS V13.01,2013-02-14 05:56:00,
2013-02-14 01:01:00,34.9,30.0,0.00,NNW,338,0.0,0.0,82,0.00,,---,0.00,VWS V13.01,2013-02-14 06:01:00,
2013-02-14 01:06:00,34.9,30.0,0.00,NNW,338,0.0,0.0,82,0.00,,---,0.00,VWS V13.01,2013-02-14 06:06:00,
2013-02-14 01:11:00,34.9,30.0,0.00,NNW,338,0.0,0.0,82,0.00,,---,0.00,VWS V13.01,2013-02-14 06:11:00,
2013-02-14 01:16:00,34.9,30.2,0.00,NNW,338,0.0,0.0,83,0.00,,---,0.00,VWS V13.01,2013-02-14 06:16:00,
2013-02-14 01:21:00,34.9,30.2,0.00,NNW,338,0.0,0.0,83,0.00,,---,0.00,VWS V13.01,2013-02-14 06:21:00,
2013-02-14 01:26:00,35.1,30.7,0.00,NNW,338,0.0,0.0,84,0.00,,---,0.00,VWS V13.01,2013-02-14 06:26:00,
2013-02-14 01:31:00,35.2,30.9,0.00,NNW,338,0.0,0.0,84,0.00,,---,0.00,VWS V13.01,2013-02-14 06:31:00,
2013-02-14 01:36:00,35.4,31.4,0.00,NNW,338,0.0,0.0,85,0.00,,---,0.00,VWS V13.01,2013-02-14 06:36:00,
2013-02-14 01:41:00,35.4,31.4,0.00,NNW,338,0.0,0.0,85,0.00,,---,0.00,VWS V13.01,2013-02-14 06:41:00,
2013-02-14 01:46:00,35.4,31.4,0.00,NNW,338,0.0,0.0,85,0.00,,---,0.00,VWS V13.01,2013-02-14 06:46:00,
2013-02-14 01:51:00,35.4,31.4,0.00,NNW,338,0.0,0.0,85,0.00,,---,0.00,VWS V13.01,2013-02-14 06:51:00,
2013-02-14 01:56:00,35.2,31.2,0.00,NNW,338,0.0,0.0,85,0.00,,---,0.00,VWS V13.01,2013-02-14 06:56:00,
2013-02-14 02:01:00,35.1,31.0,0.00,NNW,338,0.0,0.0,85,0.00,,---,0.00,VWS V13.01,2013-02-14 07:01:00,
2013-02-14 02:06:00,34.7,30.7,0.00,NNW,338,0.0,0.0,85,0.00,,---,0.00,VWS V13.01,2013-02-14 07:06:00,
2013-02-14 02:11:00,34.5,30.5,0.00,NNW,338,0.0,0.0,85,0.00,,---,0.00,VWS V13.01,2013-02-14 07:11:00,
2013-02-14 02:16:00,34.3,30.3,0.00,NNW,338,0.0,0.0,85,0.00,,---,0.00,VWS V13.01,2013-02-14 07:16:00,
2013-02-14 02:21:00,34.2,30.1,0.00,NNW,338,0.0,0.0,85,0.00,,---,0.00,VWS V13.01,2013-02-14 07:21:00,
2013-02-14 02:26:00,34.0,30.0,0.00,NNW,338,0.0,0.0,85,0.00,,---,0.00,VWS V13.01,2013-02-14 07:26:00,
2013-02-14 02:31:00,33.6,29.9,0.00,NNW,338,0.0,0.0,86,0.00,,---,0.00,VWS V13.01,2013-02-14 07:31:00,
2013-02-14 02:36:00,33.6,29.9,0.00,NNW,338,0.0,0.0,86,0.00,,---,0.00,VWS V13.01,2013-02-14 07:36:00,
2013-02-14 02:41:00,33.6,29.9,0.00,NNW,338,0.0,0.0,86,0.00,,---,0.00,VWS V13.01,2013-02-14 07:41:00,
2013-02-14 02:46:00,33.3,29.5,0.00,NNW,338,0.0,0.0,86,0.00,,---,0.00,VWS V13.01,2013-02-14 07:46:00,
2013-02-14 02:51:00,33.1,29.4,0.00,NNW,338,0.0,0.0,86,0.00,,---,0.00,VWS V13.01,2013-02-14 07:51:00,
2013-02-14 02:56:00,33.1,29.4,0.00,NNW,338,0.0,0.0,86,0.00,,---,0.00,VWS V13.01,2013-02-14 07:56:00,
2013-02-14 03:01:00,33.1,29.4,0.00,NNW,338,0.0,0.0,86,0.00,,---,0.00,VWS V13.01,2013-02-14 08:01:00,
2013-02-14 03:06:00,32.9,29.5,0.00,NNW,338,0.0,0.0,87,0.00,,---,0.00,VWS V13.01,2013-02-14 08:06:00,
2013-02-14 03:11:00,32.9,29.5,0.00,NNW,338,0.0,0.0,87,0.00,,---,0.00,VWS V13.01,2013-02-14 08:11:00,
2013-02-14 03:16:00,32.9,29.5,0.00,NNW,338,0.0,0.0,87,0.00,,---,0.00,VWS V13.01,2013-02-14 08:16:00,
2013-02-14 03:21:00,32.9,29.5,0.00,NNW,338,0.0,0.0,87,0.00,,---,0.00,VWS V13.01,2013-02-14 08:21:00,
2013-02-14 03:27:00,32.9,29.5,0.00,NNW,338,0.0,0.0,87,0.00,,---,0.00,VWS V13.01,2013-02-14 08:27:00,
2013-02-14 03:32:00,32.7,29.3,0.00,NNW,338,0.0,0.0,87,0.00,,---,0.00,VWS V13.01,2013-02-14 08:32:00,
2013-02-14 03:37:00,32.7,29.3,0.00,NNW,338,0.0,0.0,87,0.00,,---,0.00,VWS V13.01,2013-02-14 08:37:00,
2013-02-14 03:42:00,32.7,29.3,0.00,NNW,338,0.0,0.0,87,0.00,,---,0.00,VWS V13.01,2013-02-14 08:42:00,
2013-02-14 03:47:00,32.7,29.3,0.00,NNW,338,0.0,0.0,87,0.00,,---,0.00,VWS V13.01,2013-02-14 08:47:00,